When you browse on this site, cookies collect data to enhance your experience and personalize the content and advertising you see.
Visit our Privacy Policy to learn more. By continuing to use the site, you agree to this use of cookies and data.
  • In France
  • List of Countries
  • For 7 days
  • Water Temperature
  • Satellite Maps
  • Weather Map
  • Weather Widgets
  • user-avatar
    Login

    Hourly Weather Bunratty

    Today, 16 July, Tuesday

    Time Temperature Precipitation Wind Pressure Humidity
    00:00 +13°C° 0 mm 0 mps 758 mmHg 95%
    01:00 +13°C° 0 mm 0 mps 758 mmHg 95%
    02:00 +13°C° 0 mm 0 mps 758 mmHg 95%
    03:00 +13°C° 0 mm 0 mps 757 mmHg 95%
    04:00 +13°C° 0 mm 0 mps 757 mmHg 94%
    05:00 +15°C° 0 mm 1 mps 758 mmHg 94%
    06:00 +18°C° 0 mm 1 mps 758 mmHg 87%
    07:00 +19°C° 0 mm 1 mps 758 mmHg 80%
    08:00 +20°C° 0 mm 1 mps 758 mmHg 73%
    09:00 +19°C° 0 mm 2 mps 758 mmHg 68%
    10:00 +20°C° 0 mm 2 mps 757 mmHg 64%
    11:00 +21°C° 0 mm 3 mps 757 mmHg 60%
    12:00 +21°C° 0 mm 3 mps 757 mmHg 61%
    13:00 +21°C° 0 mm 3 mps 757 mmHg 62%
    14:00 +21°C° 0 mm 4 mps 757 mmHg 62%
    15:00 +20°C° 0 mm 4 mps 757 mmHg 66%
    16:00 +19°C° 0 mm 3 mps 757 mmHg 71%
    17:00 +18°C° 0 mm 3 mps 756 mmHg 75%
    18:00 +17°C° 0 mm 3 mps 756 mmHg 81%
    19:00 +16°C° 0 mm 2 mps 756 mmHg 87%
    20:00 +15°C° 0 mm 2 mps 756 mmHg 92%
    21:00 +15°C° 0 mm 2 mps 756 mmHg 93%
    22:00 +14°C° 0 mm 2 mps 756 mmHg 94%
    23:00 +14°C° 0 mm 2 mps 756 mmHg 95%

    Tomorrow, 17 July, Wednesday

    Time Temperature Precipitation Wind Pressure Humidity
    00:00 +14°C° 0 mm 2 mps 755 mmHg 95%
    01:00 +13°C° 0 mm 3 mps 754 mmHg 95%
    02:00 +13°C° 0 mm 3 mps 754 mmHg 95%
    03:00 +14°C° 0.2 mm 3 mps 754 mmHg 95%
    04:00 +14°C° 0.2 mm 3 mps 753 mmHg 95%
    05:00 +15°C° 0.2 mm 4 mps 753 mmHg 94%
    06:00 +15°C° 0.8 mm 4 mps 753 mmHg 94%
    07:00 +15°C° 0.8 mm 4 mps 752 mmHg 94%
    08:00 +15°C° 0.8 mm 4 mps 752 mmHg 94%
    09:00 +15°C° 1.1 mm 4 mps 752 mmHg 95%
    10:00 +17°C° 1.1 mm 4 mps 752 mmHg 96%
    11:00 +17°C° 1.1 mm 4 mps 751 mmHg 97%
    12:00 +17°C° 0.5 mm 4 mps 751 mmHg 96%
    13:00 +18°C° 0.5 mm 4 mps 751 mmHg 94%
    14:00 +18°C° 0.5 mm 4 mps 751 mmHg 92%
    15:00 +18°C° 0.3 mm 4 mps 751 mmHg 92%
    16:00 +18°C° 0.3 mm 3 mps 751 mmHg 92%
    17:00 +17°C° 0.3 mm 3 mps 751 mmHg 91%
    18:00 +16°C° 0.1 mm 3 mps 751 mmHg 92%
    19:00 +14°C° 0.1 mm 3 mps 752 mmHg 92%
    20:00 +13°C° 0.1 mm 3 mps 752 mmHg 92%
    21:00 +13°C° 0 mm 3 mps 752 mmHg 92%
    22:00 +14°C° 0 mm 2 mps 752 mmHg 92%
    23:00 +13°C° 0 mm 2 mps 752 mmHg 92%

    Day after tomorrow, 18 July, Thursday

    Time Temperature Precipitation Wind Pressure Humidity
    00:00 +13°C° 0 mm 2 mps 752 mmHg 92%
    01:00 +13°C° 0 mm 2 mps 752 mmHg 92%
    02:00 +13°C° 0 mm 2 mps 752 mmHg 93%
    03:00 +13°C° 0 mm 2 mps 752 mmHg 92%
    04:00 +13°C° 0 mm 2 mps 752 mmHg 91%
    05:00 +13°C° 0 mm 2 mps 752 mmHg 91%
    06:00 +13°C° 0.1 mm 3 mps 752 mmHg 87%
    07:00 +14°C° 0.1 mm 4 mps 752 mmHg 83%
    08:00 +15°C° 0.1 mm 5 mps 752 mmHg 79%
    09:00 +16°C° 0.1 mm 5 mps 752 mmHg 74%
    10:00 +16°C° 0.1 mm 5 mps 752 mmHg 69%
    11:00 +17°C° 0.1 mm 6 mps 752 mmHg 64%
    12:00 +17°C° 0 mm 6 mps 752 mmHg 64%
    13:00 +17°C° 0 mm 6 mps 752 mmHg 64%
    14:00 +17°C° 0 mm 6 mps 752 mmHg 64%
    15:00 +16°C° 0 mm 5 mps 752 mmHg 67%
    16:00 +17°C° 0 mm 4 mps 752 mmHg 70%
    17:00 +15°C° 0 mm 4 mps 752 mmHg 74%
    18:00 +14°C° 0 mm 3 mps 752 mmHg 78%
    19:00 +15°C° 0 mm 2 mps 752 mmHg 82%
    20:00 +14°C° 0 mm 1 mps 752 mmHg 86%
    21:00 +13°C° 0 mm 1 mps 752 mmHg 87%
    22:00 +13°C° 0 mm 1 mps 752 mmHg 88%
    23:00 +13°C° 0 mm 1 mps 752 mmHg 89%

    19 July, Friday

    Time Temperature Precipitation Wind Pressure Humidity
    00:00 +13°C° 0 mm 1 mps 751 mmHg 89%
    01:00 +13°C° 0 mm 1 mps 751 mmHg 89%
    02:00 +13°C° 0 mm 1 mps 751 mmHg 89%
    03:00 +13°C° 0.8 mm 1 mps 750 mmHg 91%
    04:00 +13°C° 0.8 mm 1 mps 749 mmHg 94%
    05:00 +13°C° 0.8 mm 1 mps 749 mmHg 96%
    06:00 +13°C° 2.8 mm 2 mps 748 mmHg 96%
    07:00 +13°C° 2.8 mm 2 mps 748 mmHg 96%
    08:00 +12°C° 2.8 mm 3 mps 747 mmHg 97%
    09:00 +12°C° 2.2 mm 3 mps 747 mmHg 97%
    10:00 +13°C° 2.2 mm 4 mps 746 mmHg 97%
    11:00 +13°C° 2.2 mm 4 mps 745 mmHg 97%
    12:00 +13°C° 2.3 mm 4 mps 745 mmHg 96%
    13:00 +13°C° 2.3 mm 4 mps 745 mmHg 96%
    14:00 +13°C° 2.3 mm 4 mps 745 mmHg 96%
    15:00 +13°C° 0.6 mm 4 mps 745 mmHg 95%
    16:00 +13°C° 0.6 mm 4 mps 745 mmHg 94%
    17:00 +13°C° 0.6 mm 4 mps 746 mmHg 93%
    18:00 +13°C° 0 mm 4 mps 746 mmHg 93%
    19:00 +12°C° 0 mm 3 mps 747 mmHg 93%
    20:00 +13°C° 0 mm 2 mps 747 mmHg 94%
    21:00 +13°C° 0 mm 2 mps 748 mmHg 94%
    22:00 +12°C° 0 mm 2 mps 748 mmHg 94%
    23:00 +12°C° 0 mm 2 mps 748 mmHg 94%

    20 July, Saturday

    Time Temperature Precipitation Wind Pressure Humidity
    00:00 +12°C° 0 mm 2 mps 748 mmHg 94%
    01:00 +12°C° 0 mm 2 mps 749 mmHg 94%
    02:00 +12°C° 0 mm 2 mps 749 mmHg 94%
    03:00 +12°C° 0 mm 2 mps 749 mmHg 93%
    04:00 +13°C° 0 mm 2 mps 749 mmHg 93%
    05:00 +13°C° 0 mm 1 mps 749 mmHg 93%
    06:00 +14°C° 0 mm 2 mps 750 mmHg 87%
    07:00 +16°C° 0 mm 2 mps 750 mmHg 82%
    08:00 +17°C° 0 mm 3 mps 751 mmHg 76%
    09:00 +18°C° 0.1 mm 3 mps 751 mmHg 73%
    10:00 +18°C° 0.1 mm 3 mps 751 mmHg 70%
    11:00 +19°C° 0.1 mm 4 mps 752 mmHg 66%
    12:00 +19°C° 0 mm 4 mps 752 mmHg 66%
    13:00 +19°C° 0 mm 4 mps 752 mmHg 66%
    14:00 +19°C° 0 mm 4 mps 752 mmHg 66%
    15:00 +19°C° 0 mm 3 mps 752 mmHg 69%
    16:00 +18°C° 0 mm 3 mps 753 mmHg 72%
    17:00 +18°C° 0 mm 3 mps 753 mmHg 75%
    18:00 +17°C° 0 mm 3 mps 753 mmHg 81%
    19:00 +16°C° 0 mm 2 mps 753 mmHg 87%
    20:00 +14°C° 0 mm 2 mps 754 mmHg 93%
    21:00 +14°C° 0 mm 2 mps 754 mmHg 94%
    22:00 +14°C° 0 mm 2 mps 754 mmHg 95%
    23:00 +14°C° 0 mm 2 mps 754 mmHg 96%

    21 July, Sunday

    Time Temperature Precipitation Wind Pressure Humidity
    00:00 +15°C° 0.1 mm 2 mps 754 mmHg 97%
    01:00 +15°C° 0.1 mm 2 mps 754 mmHg 97%
    02:00 +15°C° 0.1 mm 2 mps 754 mmHg 98%
    03:00 +16°C° 0 mm 2 mps 754 mmHg 98%
    04:00 +16°C° 0 mm 2 mps 754 mmHg 98%
    05:00 +16°C° 0 mm 2 mps 754 mmHg 98%
    06:00 +17°C° 0 mm 2 mps 755 mmHg 94%
    07:00 +18°C° 0 mm 3 mps 755 mmHg 90%
    08:00 +19°C° 0 mm 3 mps 755 mmHg 86%
    09:00 +19°C° 0 mm 4 mps 755 mmHg 81%
    10:00 +20°C° 0 mm 4 mps 756 mmHg 77%
    11:00 +21°C° 0 mm 5 mps 756 mmHg 73%
    12:00 +21°C° 0 mm 5 mps 756 mmHg 74%
    13:00 +21°C° 0 mm 5 mps 756 mmHg 75%
    14:00 +21°C° 0 mm 4 mps 756 mmHg 77%
    15:00 +20°C° 0 mm 4 mps 756 mmHg 80%
    16:00 +20°C° 0 mm 4 mps 756 mmHg 83%
    17:00 +19°C° 0 mm 4 mps 756 mmHg 86%
    18:00 +19°C° 0 mm 4 mps 756 mmHg 89%
    19:00 +18°C° 0 mm 4 mps 756 mmHg 92%
    20:00 +18°C° 0 mm 4 mps 756 mmHg 94%
    21:00 +18°C° 0 mm 4 mps 756 mmHg 94%
    22:00 +17°C° 0 mm 5 mps 755 mmHg 93%
    23:00 +16°C° 0 mm 5 mps 755 mmHg 93%
    Show more